{"data":{"norad_id":68844,"epoch":"2026-09-19T23:16:48.393120Z","epoch_age_seconds":61190,"freshness":"FRESH","line1":"1 68844U 26094F   26262.97000455  .00019511  00000+0  60479-3 0  9994","line2":"2 68844  97.2851 276.0582 0000724  71.0994 289.0327 15.33462360 22577","mean_motion":15.3346236,"eccentricity":7.24e-5,"inclination_deg":97.2851,"raan_deg":276.0582,"arg_perigee_deg":71.0994,"mean_anomaly_deg":289.0327,"bstar":0.00060479,"rev_number":2257,"period_min":93.90514156474,"perigee_km":464.99604511408,"apogee_km":465.98700252433,"semimajor_km":6843.6285238192,"source":"CELESTRAK","updated_at":"2026-09-20T09:00:44.014920Z"}}